User: anonymous   Login
Location: NJAA Observatory
(40.6819°N, 74.8979°W)
Time: 17:56:17
(UTC-04:00)
Language:

ATLAS CENTAUR R/B - Orbit

View from above orbital plane
View from above orbital plane
View from above satellite
View from above satellite

Ground track
Ground track

The orbit data is extracted from the following two-line orbital elements,

1 28385U 04034B   17080.75827049 0.00074987  00000-0  73434-3 0    07
2 28385  57.4200  34.0046 3656247  83.4905 316.0274  8.22338447    09
Epoch (UTC): 21 March 2017 18:11:54
Eccentricity: 0.3656247
inclination: 57.4200°
perigee height: 199 km
apogee height: 7781 km
right ascension of ascending node: 34.0046°
argument of perigee: 83.4905°
revolutions per day: 8.22338447
mean anomaly at epoch: 316.0274°
orbit number at epoch: 0

The dashed part of the orbit path shows where the satellite is in the earth's shadow,  

DLR